STARLINK-3319 (50847 NORAD) Tracking and Keplerian Element Data

This shows tracking and keplerian element data for the satellite.

Feedback or suggestion? Click here.




ElementValue
Catalog50847
NameSTARLINK-3319
Epoch Orbit2175
Epoch Day140.58334491
Epoch Year2022
RAAN295.0524
Inclination53.2146
Eccentricity0.0001832
Argument of Perigee86.724
Mean Anonmoly4.8664
Mean Motion15.08843279
Decay Rate-0.00028766
L11 50847U 22001AW 22140.58334491 -.00028766 00000+0 -17963-2 0 9993
L22 50847 53.2146 295.0524 0001832 86.7240 4.8664 15.08843279 21755

Live tracking and technical data element details for STARLINK-3319 (NORAD 50847). STARLINK-3319 can be tracked NOW for your location showing map with azimuth and elevation plus other details from your city location.

Track the satellite on the map from your city or location and see movement details for azimuth, elevation, latitude, longitude, range, height, and movement on the map or in text.







IsCatalogInMostPopularTable: catalog: 50847, numindb: 21
Update: records affected: 1



GetName: 50847 STARLINK-3319

Hit Count: updated at: Mon, 23 May 2022 21:41:43 GMT